sat.trackr.live / text

‹ back to catalog

FLOCK 4G-10

NORAD 62670 · 2025-009BP

PAYLOAD ACTIVE UNKNOWN

§ Identity

Operator
Country
US
Launch date
2025-01-14
Launch site
AFWTR
Launch vehicle
Mass (kg)
RCS (m²)

Purposes: earth_obs

External: N2YO · Heavens-Above · Gunter

§ Orbital elements

Epoch: 2026-09-19T11:07:55.896096Z

Period
94.05 min
Inclination
97.3864°
Eccentricity
0.0004118
Mean motion
15.31053052 rev/d
Perigee alt
469.8 km
Apogee alt
475.5 km
Semi-major
6,850.8 km
B*
2.6056e-4
RAAN
343.1345°
Arg perigee
20.9611°
Mean anomaly
339.1798°
Rev number
15,095

§ Raw data

FLOCK 4G-101 62670U 25009BP  26262.46384139  .00007742  00000+0  26056-3 0  99942 62670  97.3864 343.1345 0004118  20.9611 339.1798 15.31053052150951

JSON: /api/v1/satellites/62670 · /tle

For live sub-satellite position, see the globe view (requires WebGL).

§ Visibility from observer

Set your observer location to see the next 7 days of passes ≥ 10°. The values pass through the URL so the page stays shareable.

No JS? Fill the form by hand. The geolocation button needs JavaScript.